,,PressureMeas_1m,,PRMeasQMR101_1,,RHStat155_1m_1,,SRMeasQMS101R_1m,,TAStat155_1m_1,,GenWind_1,,GenWind_1,
2019-01-25, 00:00:07,VALID,919.881,VALID,0.0,VALID,99.043,VALID,-0.009,VALID,20.071,VALID,43.0,VALID,1.529,
2019-01-25, 00:01:07,VALID,919.902,VALID,0.0,VALID,99.053,VALID,-0.011,VALID,20.084,VALID,42.0,VALID,1.519,
2019-01-25, 00:02:07,VALID,919.879,VALID,0.0,VALID,99.041,VALID,-0.019,VALID,20.081,VALID,42.0,VALID,1.263,
2019-01-25, 00:03:07,VALID,919.885,VALID,0.0,VALID,99.046,VALID,-0.012,VALID,20.069,VALID,42.0,VALID,1.212,
2019-01-25, 00:04:07,VALID,919.86,VALID,0.0,VALID,99.042,VALID,-0.014,VALID,20.051,VALID,42.0,VALID,0.945,
2019-01-25, 00:05:07,VALID,919.874,VALID,0.0,VALID,99.035,VALID,-0.011,VALID,20.051,VALID,43.0,VALID,1.343,
2019-01-25, 00:06:07,VALID,919.894,VALID,0.0,VALID,99.047,VALID,-0.015,VALID,20.065,VALID,42.0,VALID,1.337,
2019-01-25, 00:07:07,VALID,919.882,VALID,0.0,VALID,99.052,VALID,-0.027,VALID,20.052,VALID,42.0,VALID,1.222,
2019-01-25, 00:08:07,VALID,919.908,VALID,0.0,VALID,99.064,VALID,-0.012,VALID,20.052,VALID,42.0,VALID,1.03,
2019-01-25, 00:09:07,VALID,919.909,VALID,0.0,VALID,99.071,VALID,-0.04,VALID,20.056,VALID,42.0,VALID,1.288,
2019-01-25, 00:10:07,VALID,919.911,VALID,0.0,VALID,99.076,VALID,-0.016,VALID,20.058,VALID,42.0,VALID,1.125,
2019-01-25, 00:11:07,VALID,919.926,VALID,0.0,VALID,99.077,VALID,-0.019,VALID,20.054,VALID,42.0,VALID,1.236,
2019-01-25, 00:12:07,VALID,919.933,VALID,0.0,VALID,99.091,VALID,0.005,VALID,20.059,VALID,42.0,VALID,1.243,
2019-01-25, 00:13:07,VALID,919.93,VALID,0.0,VALID,99.089,VALID,-0.014,VALID,20.057,VALID,42.0,VALID,1.243,
2019-01-25, 00:14:07,VALID,919.94,VALID,0.0,VALID,99.074,VALID,-0.01,VALID,20.057,VALID,42.0,VALID,1.234,
2019-01-25, 00:15:07,VALID,919.942,VALID,0.0,VALID,99.11,VALID,-0.004,VALID,20.047,VALID,42.0,VALID,1.456,
2019-01-25, 00:16:07,VALID,919.927,VALID,0.0,VALID,99.101,VALID,0.01,VALID,20.028,VALID,42.0,VALID,1.174,
2019-01-25, 00:17:07,VALID,919.934,VALID,0.0,VALID,99.093,VALID,-0.019,VALID,20.024,VALID,42.0,VALID,0.977,
2019-01-25, 00:18:07,VALID,919.948,VALID,0.0,VALID,99.116,VALID,-0.022,VALID,20.028,VALID,42.0,VALID,1.102,
2019-01-25, 00:19:07,VALID,919.954,VALID,0.0,VALID,99.126,VALID,0.002,VALID,20.038,VALID,42.0,VALID,1.464,
2019-01-25, 00:20:07,VALID,919.961,VALID,0.0,VALID,99.115,VALID,-0.009,VALID,20.04,VALID,42.0,VALID,1.471,
2019-01-25, 00:21:07,VALID,919.963,VALID,0.0,VALID,99.125,VALID,-0.004,VALID,20.047,VALID,43.0,VALID,1.552,
2019-01-25, 00:22:07,VALID,919.954,VALID,0.0,VALID,99.129,VALID,-0.016,VALID,20.059,VALID,42.0,VALID,1.368,
2019-01-25, 00:23:07,VALID,919.938,VALID,0.0,VALID,99.146,VALID,-0.005,VALID,20.059,VALID,42.0,VALID,1.409,
2019-01-25, 00:24:07,VALID,919.943,VALID,0.0,VALID,99.139,VALID,0.001,VALID,20.063,VALID,42.0,VALID,1.651,
2019-01-25, 00:25:07,VALID,919.902,VALID,0.0,VALID,99.135,VALID,-0.015,VALID,20.07,VALID,43.0,VALID,1.513,
2019-01-25, 00:26:07,VALID,919.885,VALID,0.0,VALID,99.139,VALID,0.001,VALID,20.067,VALID,42.0,VALID,1.682,
2019-01-25, 00:27:07,VALID,919.859,VALID,0.0,VALID,99.146,VALID,0.006,VALID,20.064,VALID,42.0,VALID,1.706,
2019-01-25, 00:28:07,VALID,919.817,VALID,0.0,VALID,99.144,VALID,-0.009,VALID,20.06,VALID,42.0,VALID,1.548,
2019-01-25, 00:29:07,VALID,919.802,VALID,0.0,VALID,99.119,VALID,0.0,VALID,20.044,VALID,42.0,VALID,1.343,
2019-01-25, 00:30:07,VALID,919.774,VALID,0.0,VALID,99.131,VALID,-0.017,VALID,20.028,VALID,42.0,VALID,0.964,
2019-01-25, 00:31:07,VALID,919.758,VALID,0.0,VALID,99.144,VALID,-0.018,VALID,20.018,VALID,42.0,VALID,1.027,
2019-01-25, 00:32:07,VALID,919.763,VALID,0.0,VALID,99.132,VALID,-0.008,VALID,20.01,VALID,44.0,VALID,0.894,
2019-01-25, 00:33:07,VALID,919.79,VALID,0.0,VALID,99.152,VALID,0.012,VALID,19.999,VALID,47.0,VALID,0.775,
2019-01-25, 00:34:07,VALID,919.832,VALID,0.0,VALID,99.132,VALID,0.012,VALID,19.997,INVALID,360.0,VALID,0.12,
2019-01-25, 00:35:07,VALID,919.839,VALID,0.0,VALID,99.141,VALID,0.002,VALID,19.986,INVALID,360.0,VALID,0.0,
2019-01-25, 00:36:07,VALID,919.865,VALID,0.0,VALID,99.128,VALID,-0.003,VALID,19.98,INVALID,360.0,VALID,0.0,
2019-01-25, 00:37:07,VALID,919.878,VALID,0.0,VALID,99.133,VALID,-0.001,VALID,19.966,INVALID,360.0,VALID,0.0,
2019-01-25, 00:38:07,VALID,919.894,VALID,0.0,VALID,99.157,VALID,-0.004,VALID,19.962,INVALID,360.0,VALID,0.0,
2019-01-25, 00:39:07,VALID,919.896,VALID,0.0,VALID,99.151,VALID,-0.003,VALID,19.971,INVALID,360.0,VALID,0.0,
2019-01-25, 00:40:07,VALID,919.912,VALID,0.0,VALID,99.16,VALID,0.001,VALID,19.955,INVALID,360.0,VALID,0.0,
2019-01-25, 00:41:07,VALID,919.914,VALID,0.0,VALID,99.141,VALID,0.018,VALID,19.927,INVALID,360.0,VALID,0.0,
2019-01-25, 00:42:07,VALID,919.91,VALID,0.0,VALID,99.145,VALID,0.001,VALID,19.947,INVALID,360.0,VALID,0.023,
2019-01-25, 00:43:07,VALID,919.898,VALID,0.0,VALID,99.175,VALID,0.004,VALID,19.994,VALID,43.0,VALID,0.823,
2019-01-25, 00:44:07,VALID,919.889,VALID,0.0,VALID,99.2,VALID,0.008,VALID,20.014,VALID,40.0,VALID,0.829,
2019-01-25, 00:45:07,VALID,919.885,VALID,0.0,VALID,99.175,VALID,-0.005,VALID,20.034,VALID,42.0,VALID,0.591,
2019-01-25, 00:46:07,VALID,919.87,VALID,0.0,VALID,99.169,VALID,0.001,VALID,20.048,VALID,44.0,VALID,0.747,
2019-01-25, 00:47:07,VALID,919.855,VALID,0.0,VALID,99.172,VALID,-0.019,VALID,20.055,VALID,46.0,VALID,0.559,
2019-01-25, 00:48:07,VALID,919.863,VALID,0.0,VALID,99.175,VALID,-0.031,VALID,20.066,VALID,45.0,VALID,0.994,
2019-01-25, 00:49:07,VALID,919.857,VALID,0.0,VALID,99.175,VALID,-0.021,VALID,20.058,VALID,42.0,VALID,1.133,
2019-01-25, 00:50:07,VALID,919.845,VALID,0.0,VALID,99.154,VALID,-0.01,VALID,20.028,VALID,42.0,VALID,1.404,
2019-01-25, 00:51:07,VALID,919.836,VALID,0.0,VALID,99.168,VALID,-0.009,VALID,20.022,VALID,42.0,VALID,1.204,
2019-01-25, 00:52:06,VALID,919.844,VALID,0.0,VALID,99.177,VALID,-0.006,VALID,20.011,VALID,42.0,VALID,1.292,
2019-01-25, 00:53:06,VALID,919.864,VALID,0.0,VALID,99.16,VALID,-0.01,VALID,20.002,VALID,42.0,VALID,1.32,
2019-01-25, 00:54:06,VALID,919.844,VALID,0.0,VALID,99.166,VALID,-0.021,VALID,20.0,VALID,42.0,VALID,1.716,
2019-01-25, 00:55:06,VALID,919.818,VALID,0.0,VALID,99.175,VALID,-0.003,VALID,20.007,VALID,42.0,VALID,1.872,
2019-01-25, 00:56:06,VALID,919.823,VALID,0.0,VALID,99.179,VALID,-0.006,VALID,20.02,VALID,42.0,VALID,1.827,
2019-01-25, 00:57:06,VALID,919.808,VALID,0.0,VALID,99.16,VALID,0.008,VALID,20.033,VALID,42.0,VALID,2.096,
2019-01-25, 00:58:06,VALID,919.786,VALID,0.0,VALID,99.161,VALID,0.03,VALID,20.055,VALID,42.0,VALID,1.706,
2019-01-25, 00:59:06,VALID,919.777,VALID,0.0,VALID,99.129,VALID,0.027,VALID,20.07,VALID,42.0,VALID,1.915,
2019-01-25, 01:00:06,VALID,919.756,VALID,0.0,VALID,99.091,VALID,0.027,VALID,20.083,VALID,42.0,VALID,1.743,
2019-01-25, 01:01:06,VALID,919.748,VALID,0.0,VALID,99.017,VALID,0.02,VALID,20.092,VALID,42.0,VALID,1.911,
2019-01-25, 01:02:06,VALID,919.73,VALID,0.0,VALID,98.939,VALID,0.019,VALID,20.105,VALID,42.0,VALID,2.109,
2019-01-25, 01:03:06,VALID,919.722,VALID,0.0,VALID,98.813,VALID,0.005,VALID,20.12,VALID,42.0,VALID,1.779,
2019-01-25, 01:04:06,VALID,919.706,VALID,0.0,VALID,98.699,VALID,0.006,VALID,20.126,VALID,42.0,VALID,1.782,
2019-01-25, 01:05:06,VALID,919.701,VALID,0.0,VALID,98.625,VALID,-0.004,VALID,20.129,VALID,42.0,VALID,1.455,
2019-01-25, 01:06:06,VALID,919.685,VALID,0.0,VALID,98.557,VALID,-0.004,VALID,20.137,VALID,42.0,VALID,2.051,
2019-01-25, 01:07:06,VALID,919.655,VALID,0.0,VALID,98.514,VALID,0.0,VALID,20.145,VALID,42.0,VALID,2.026,
2019-01-25, 01:08:06,VALID,919.622,VALID,0.0,VALID,98.437,VALID,-0.009,VALID,20.149,VALID,42.0,VALID,1.477,
2019-01-25, 01:09:06,VALID,919.635,VALID,0.0,VALID,98.378,VALID,0.016,VALID,20.144,VALID,42.0,VALID,1.499,
2019-01-25, 01:10:06,VALID,919.633,VALID,0.0,VALID,98.322,VALID,0.012,VALID,20.151,VALID,42.0,VALID,1.973,
2019-01-25, 01:11:06,VALID,919.617,VALID,0.0,VALID,98.259,VALID,0.01,VALID,20.175,VALID,42.0,VALID,1.862,
2019-01-25, 01:12:06,VALID,919.623,VALID,0.0,VALID,98.177,VALID,-0.007,VALID,20.184,VALID,42.0,VALID,1.412,
2019-01-25, 01:13:06,VALID,919.594,VALID,0.0,VALID,98.123,VALID,-0.002,VALID,20.176,VALID,42.0,VALID,1.413,
2019-01-25, 01:14:06,VALID,919.595,VALID,0.0,VALID,98.105,VALID,0.012,VALID,20.165,VALID,42.0,VALID,2.016,
2019-01-25, 01:15:06,VALID,919.546,VALID,0.0,VALID,98.088,VALID,0.009,VALID,20.157,VALID,42.0,VALID,1.864,
2019-01-25, 01:16:06,VALID,919.535,VALID,0.0,VALID,98.085,VALID,0.022,VALID,20.136,VALID,42.0,VALID,1.597,
2019-01-25, 01:17:06,VALID,919.513,VALID,0.0,VALID,98.128,VALID,0.01,VALID,20.126,VALID,42.0,VALID,1.879,
2019-01-25, 01:18:06,VALID,919.496,VALID,0.0,VALID,98.143,VALID,0.016,VALID,20.116,VALID,42.0,VALID,1.81,
2019-01-25, 01:19:06,VALID,919.486,VALID,0.0,VALID,98.147,VALID,0.019,VALID,20.111,VALID,42.0,VALID,1.823,
2019-01-25, 01:20:06,VALID,919.467,VALID,0.0,VALID,98.173,VALID,0.025,VALID,20.101,VALID,42.0,VALID,1.971,
2019-01-25, 01:21:06,VALID,919.45,VALID,0.0,VALID,98.188,VALID,0.01,VALID,20.114,VALID,42.0,VALID,2.25,
2019-01-25, 01:22:06,VALID,919.439,VALID,0.0,VALID,98.127,VALID,0.004,VALID,20.145,VALID,42.0,VALID,2.487,
2019-01-25, 01:23:06,VALID,919.428,VALID,0.0,VALID,97.998,VALID,0.009,VALID,20.186,VALID,42.0,VALID,1.882,
2019-01-25, 01:24:06,VALID,919.403,VALID,0.0,VALID,97.826,VALID,0.001,VALID,20.211,VALID,42.0,VALID,1.95,
2019-01-25, 01:25:06,VALID,919.394,VALID,0.0,VALID,97.684,VALID,0.009,VALID,20.24,VALID,43.0,VALID,1.996,
2019-01-25, 01:26:06,VALID,919.397,VALID,0.0,VALID,97.541,VALID,0.025,VALID,20.262,VALID,43.0,VALID,1.737,
2019-01-25, 01:27:06,VALID,919.388,VALID,0.0,VALID,97.395,VALID,0.001,VALID,20.276,VALID,42.0,VALID,2.142,
2019-01-25, 01:28:06,VALID,919.37,VALID,0.0,VALID,97.371,VALID,-0.001,VALID,20.274,VALID,43.0,VALID,1.736,
2019-01-25, 01:29:06,VALID,919.376,VALID,0.0,VALID,97.369,VALID,-0.003,VALID,20.265,VALID,43.0,VALID,2.004,
2019-01-25, 01:30:06,VALID,919.331,VALID,0.0,VALID,97.38,VALID,-0.009,VALID,20.271,VALID,43.0,VALID,2.091,
2019-01-25, 01:31:06,VALID,919.324,VALID,0.0,VALID,97.319,VALID,0.002,VALID,20.275,VALID,42.0,VALID,1.69,
2019-01-25, 01:32:06,VALID,919.324,VALID,0.0,VALID,97.295,VALID,-0.017,VALID,20.269,VALID,42.0,VALID,2.116,
2019-01-25, 01:33:06,VALID,919.311,VALID,0.0,VALID,97.303,VALID,-0.002,VALID,20.28,VALID,42.0,VALID,1.913,
2019-01-25, 01:34:06,VALID,919.292,VALID,0.0,VALID,97.261,VALID,-0.021,VALID,20.278,VALID,42.0,VALID,1.805,
2019-01-25, 01:35:06,VALID,919.292,VALID,0.0,VALID,97.243,VALID,-0.006,VALID,20.266,VALID,43.0,VALID,1.699,
2019-01-25, 01:36:06,VALID,919.276,VALID,0.0,VALID,97.266,VALID,-0.005,VALID,20.248,VALID,42.0,VALID,1.742,
2019-01-25, 01:37:06,VALID,919.279,VALID,0.0,VALID,97.301,VALID,0.001,VALID,20.237,VALID,42.0,VALID,2.051,
2019-01-25, 01:38:06,VALID,919.262,VALID,0.0,VALID,97.326,VALID,-0.013,VALID,20.234,VALID,42.0,VALID,2.089,
2019-01-25, 01:39:06,VALID,919.262,VALID,0.0,VALID,97.279,VALID,-0.016,VALID,20.23,VALID,43.0,VALID,1.884,
2019-01-25, 01:40:06,VALID,919.257,VALID,0.0,VALID,97.251,VALID,-0.007,VALID,20.234,VALID,42.0,VALID,1.95,
2019-01-25, 01:41:06,VALID,919.225,VALID,0.0,VALID,97.245,VALID,-0.013,VALID,20.228,VALID,42.0,VALID,1.691,
2019-01-25, 01:42:06,VALID,919.233,VALID,0.0,VALID,97.272,VALID,0.009,VALID,20.221,VALID,43.0,VALID,1.402,
2019-01-25, 01:43:06,VALID,919.207,VALID,0.0,VALID,97.352,VALID,0.02,VALID,20.225,VALID,43.0,VALID,1.039,
2019-01-25, 01:44:06,VALID,919.201,VALID,0.0,VALID,97.445,VALID,0.001,VALID,20.226,INVALID,360.0,VALID,0.496,
2019-01-25, 01:45:06,VALID,919.19,VALID,0.0,VALID,97.48,VALID,0.015,VALID,20.21,VALID,43.0,VALID,1.312,
2019-01-25, 01:46:06,VALID,919.171,VALID,0.0,VALID,97.517,VALID,-0.001,VALID,20.192,VALID,44.0,VALID,0.803,
2019-01-25, 01:47:06,VALID,919.158,VALID,0.0,VALID,97.514,VALID,-0.002,VALID,20.166,VALID,42.0,VALID,0.369,
2019-01-25, 01:48:06,VALID,919.144,VALID,0.0,VALID,97.646,VALID,0.011,VALID,20.169,VALID,43.0,VALID,0.239,
2019-01-25, 01:49:06,VALID,919.139,VALID,0.0,VALID,97.652,VALID,0.012,VALID,20.146,INVALID,360.0,VALID,0.0,
2019-01-25, 01:50:06,VALID,919.131,VALID,0.0,VALID,97.659,VALID,-0.014,VALID,20.135,INVALID,360.0,VALID,0.0,
2019-01-25, 01:51:06,VALID,919.134,VALID,0.0,VALID,97.68,VALID,-0.0,VALID,20.115,INVALID,360.0,VALID,0.0,
2019-01-25, 01:52:06,VALID,919.113,VALID,0.0,VALID,97.739,VALID,-0.013,VALID,20.119,INVALID,360.0,VALID,0.0,
2019-01-25, 01:53:06,VALID,919.125,VALID,0.0,VALID,97.724,VALID,0.007,VALID,20.1,INVALID,360.0,VALID,0.0,
2019-01-25, 01:54:06,VALID,919.097,VALID,0.0,VALID,97.719,VALID,-0.007,VALID,20.088,VALID,43.0,VALID,1.479,
2019-01-25, 01:55:06,VALID,919.088,VALID,0.0,VALID,97.649,VALID,-0.011,VALID,20.07,VALID,42.0,VALID,1.427,
2019-01-25, 01:56:06,VALID,919.094,VALID,0.0,VALID,97.6,VALID,0.019,VALID,20.061,VALID,42.0,VALID,1.56,
2019-01-25, 01:57:06,VALID,919.065,VALID,0.0,VALID,97.545,VALID,-0.02,VALID,20.047,VALID,42.0,VALID,1.458,
2019-01-25, 01:58:06,VALID,919.068,VALID,0.0,VALID,97.57,VALID,-0.018,VALID,20.044,VALID,42.0,VALID,1.513,
2019-01-25, 01:59:06,VALID,919.078,VALID,0.0,VALID,97.614,VALID,-0.031,VALID,20.043,VALID,42.0,VALID,1.275,
2019-01-25, 02:00:06,VALID,919.059,VALID,0.0,VALID,97.629,VALID,-0.028,VALID,20.034,VALID,42.0,VALID,1.115,
2019-01-25, 02:01:06,VALID,919.037,VALID,0.0,VALID,97.684,VALID,-0.023,VALID,20.03,VALID,42.0,VALID,1.22,
2019-01-25, 02:02:06,VALID,919.034,VALID,0.0,VALID,97.794,VALID,-0.016,VALID,20.041,VALID,42.0,VALID,1.297,
2019-01-25, 02:03:06,VALID,919.015,VALID,0.0,VALID,97.851,VALID,-0.005,VALID,20.036,VALID,42.0,VALID,1.105,
2019-01-25, 02:04:06,VALID,919.002,VALID,0.0,VALID,97.876,VALID,-0.012,VALID,20.027,VALID,42.0,VALID,1.168,
2019-01-25, 02:05:06,VALID,918.992,VALID,0.0,VALID,97.94,VALID,-0.017,VALID,20.021,VALID,42.0,VALID,0.957,
2019-01-25, 02:06:06,VALID,918.974,VALID,0.0,VALID,97.97,VALID,-0.002,VALID,19.999,VALID,42.0,VALID,0.961,
2019-01-25, 02:07:06,VALID,918.96,VALID,0.0,VALID,98.054,VALID,-0.014,VALID,19.991,VALID,42.0,VALID,0.987,
2019-01-25, 02:08:06,VALID,918.947,VALID,0.0,VALID,98.103,VALID,-0.019,VALID,19.983,VALID,42.0,VALID,0.696,
2019-01-25, 02:09:06,VALID,918.908,VALID,0.0,VALID,98.133,VALID,-0.008,VALID,19.965,INVALID,360.0,VALID,0.112,
2019-01-25, 02:10:06,VALID,918.892,VALID,0.0,VALID,98.151,VALID,-0.015,VALID,19.946,INVALID,360.0,VALID,0.0,
2019-01-25, 02:11:06,VALID,918.845,VALID,0.0,VALID,98.218,VALID,-0.02,VALID,19.943,INVALID,360.0,VALID,0.0,
2019-01-25, 02:12:06,VALID,918.813,VALID,0.0,VALID,98.284,VALID,-0.019,VALID,19.934,INVALID,360.0,VALID,0.0,
2019-01-25, 02:13:06,VALID,918.788,VALID,0.0,VALID,98.317,VALID,-0.013,VALID,19.914,INVALID,360.0,VALID,0.0,
2019-01-25, 02:14:06,VALID,918.769,VALID,0.0,VALID,98.334,VALID,-0.013,VALID,19.886,INVALID,360.0,VALID,0.0,
2019-01-25, 02:15:06,VALID,918.773,VALID,0.0,VALID,98.381,VALID,-0.016,VALID,19.87,INVALID,360.0,VALID,0.0,
2019-01-25, 02:16:06,VALID,918.765,VALID,0.0,VALID,98.405,VALID,-0.007,VALID,19.854,INVALID,360.0,VALID,0.0,
2019-01-25, 02:17:06,VALID,918.763,VALID,0.0,VALID,98.424,VALID,-0.017,VALID,19.831,INVALID,360.0,VALID,0.0,
2019-01-25, 02:18:06,VALID,918.746,VALID,0.0,VALID,98.453,VALID,-0.026,VALID,19.815,INVALID,360.0,VALID,0.0,
2019-01-25, 02:19:06,VALID,918.723,VALID,0.0,VALID,98.512,VALID,-0.024,VALID,19.81,INVALID,360.0,VALID,0.0,
2019-01-25, 02:20:06,VALID,918.707,VALID,0.0,VALID,98.585,VALID,-0.011,VALID,19.821,INVALID,360.0,VALID,0.0,
2019-01-25, 02:21:06,VALID,918.702,VALID,0.0,VALID,98.593,VALID,-0.022,VALID,19.808,INVALID,360.0,VALID,0.0,
2019-01-25, 02:22:06,VALID,918.701,VALID,0.0,VALID,98.61,VALID,-0.019,VALID,19.803,INVALID,360.0,VALID,0.0,
2019-01-25, 02:23:06,VALID,918.692,VALID,0.0,VALID,98.584,VALID,-0.028,VALID,19.777,INVALID,360.0,VALID,0.0,
2019-01-25, 02:24:06,VALID,918.695,VALID,0.0,VALID,98.628,VALID,-0.019,VALID,19.773,INVALID,360.0,VALID,0.0,
2019-01-25, 02:25:06,VALID,918.703,VALID,0.0,VALID,98.65,VALID,-0.018,VALID,19.773,INVALID,360.0,VALID,0.0,
2019-01-25, 02:26:06,VALID,918.681,VALID,0.0,VALID,98.642,VALID,-0.031,VALID,19.759,INVALID,360.0,VALID,0.0,
2019-01-25, 02:27:06,VALID,918.682,VALID,0.0,VALID,98.664,VALID,0.01,VALID,19.742,INVALID,360.0,VALID,0.0,
2019-01-25, 02:28:06,VALID,918.667,VALID,0.0,VALID,98.676,VALID,0.007,VALID,19.748,INVALID,360.0,VALID,0.0,
2019-01-25, 02:29:06,VALID,918.655,VALID,0.0,VALID,98.693,VALID,-0.003,VALID,19.74,INVALID,360.0,VALID,0.0,
2019-01-25, 02:30:06,VALID,918.669,VALID,0.0,VALID,98.703,VALID,0.005,VALID,19.739,INVALID,360.0,VALID,0.0,
2019-01-25, 02:31:06,VALID,918.659,VALID,0.0,VALID,98.764,VALID,-0.007,VALID,19.769,INVALID,360.0,VALID,0.0,
2019-01-25, 02:32:06,VALID,918.641,VALID,0.0,VALID,98.759,VALID,-0.007,VALID,19.765,INVALID,360.0,VALID,0.0,
2019-01-25, 02:33:06,VALID,918.62,VALID,0.0,VALID,98.759,VALID,-0.009,VALID,19.747,INVALID,360.0,VALID,0.0,
2019-01-25, 02:34:06,VALID,918.618,VALID,0.0,VALID,98.734,VALID,-0.007,VALID,19.718,INVALID,360.0,VALID,0.0,
2019-01-25, 02:35:06,VALID,918.617,VALID,0.0,VALID,98.703,VALID,-0.016,VALID,19.688,INVALID,360.0,VALID,0.0,
2019-01-25, 02:36:06,VALID,918.606,VALID,0.0,VALID,98.739,VALID,-0.002,VALID,19.689,INVALID,360.0,VALID,0.0,
2019-01-25, 02:37:06,VALID,918.61,VALID,0.0,VALID,98.776,VALID,0.003,VALID,19.702,INVALID,360.0,VALID,0.0,
2019-01-25, 02:38:06,VALID,918.607,VALID,0.0,VALID,98.824,VALID,-0.009,VALID,19.716,INVALID,360.0,VALID,0.0,
2019-01-25, 02:39:06,VALID,918.609,VALID,0.0,VALID,98.772,VALID,-0.018,VALID,19.682,INVALID,360.0,VALID,0.0,
2019-01-25, 02:40:06,VALID,918.612,VALID,0.0,VALID,98.801,VALID,-0.001,VALID,19.695,INVALID,360.0,VALID,0.0,
2019-01-25, 02:41:06,VALID,918.598,VALID,0.0,VALID,98.839,VALID,-0.002,VALID,19.694,INVALID,360.0,VALID,0.0,
2019-01-25, 02:42:06,VALID,918.601,VALID,0.0,VALID,98.828,VALID,0.001,VALID,19.674,INVALID,360.0,VALID,0.0,
2019-01-25, 02:43:06,VALID,918.614,VALID,0.0,VALID,98.826,VALID,-0.006,VALID,19.643,INVALID,360.0,VALID,0.0,
2019-01-25, 02:44:06,VALID,918.614,VALID,0.0,VALID,98.862,VALID,-0.011,VALID,19.664,VALID,44.0,VALID,0.0,
2019-01-25, 02:45:06,VALID,918.63,VALID,0.0,VALID,98.871,VALID,-0.03,VALID,19.669,INVALID,360.0,VALID,0.0,
2019-01-25, 02:46:06,VALID,918.658,VALID,0.0,VALID,98.901,VALID,-0.027,VALID,19.687,INVALID,360.0,VALID,0.0,
2019-01-25, 02:47:06,VALID,918.674,VALID,0.0,VALID,98.932,VALID,-0.007,VALID,19.709,INVALID,360.0,VALID,0.0,
2019-01-25, 02:48:06,VALID,918.688,VALID,0.0,VALID,98.933,VALID,-0.0,VALID,19.708,INVALID,360.0,VALID,0.0,
2019-01-25, 02:49:06,VALID,918.687,VALID,0.0,VALID,98.946,VALID,-0.004,VALID,19.726,INVALID,360.0,VALID,0.0,
2019-01-25, 02:50:06,VALID,918.688,VALID,0.0,VALID,98.955,VALID,0.003,VALID,19.753,INVALID,360.0,VALID,0.0,
2019-01-25, 02:51:06,VALID,918.709,VALID,0.0,VALID,98.966,VALID,0.006,VALID,19.778,INVALID,360.0,VALID,0.165,
2019-01-25, 02:52:06,VALID,918.71,VALID,0.0,VALID,98.985,VALID,0.001,VALID,19.798,INVALID,360.0,VALID,0.004,
2019-01-25, 02:53:06,VALID,918.722,VALID,0.0,VALID,98.98,VALID,-0.011,VALID,19.803,INVALID,360.0,VALID,0.0,
2019-01-25, 02:54:06,VALID,918.708,VALID,0.0,VALID,98.967,VALID,-0.019,VALID,19.813,INVALID,360.0,VALID,0.023,
2019-01-25, 02:55:06,VALID,918.725,VALID,0.0,VALID,98.987,VALID,0.009,VALID,19.829,INVALID,360.0,VALID,0.02,
2019-01-25, 02:56:06,VALID,918.714,VALID,0.0,VALID,98.972,VALID,-0.004,VALID,19.83,INVALID,360.0,VALID,0.089,
2019-01-25, 02:57:06,VALID,918.712,VALID,0.0,VALID,98.954,VALID,0.016,VALID,19.836,INVALID,360.0,VALID,0.012,
2019-01-25, 02:58:06,VALID,918.747,VALID,0.0,VALID,98.94,VALID,0.006,VALID,19.819,INVALID,360.0,VALID,0.003,
2019-01-25, 02:59:06,VALID,918.733,VALID,0.0,VALID,98.944,VALID,0.021,VALID,19.823,INVALID,360.0,VALID,0.0,
2019-01-25, 03:00:06,VALID,918.74,VALID,0.0,VALID,98.933,VALID,0.025,VALID,19.814,INVALID,360.0,VALID,0.0,
2019-01-25, 03:01:06,VALID,918.749,VALID,0.0,VALID,98.908,VALID,0.02,VALID,19.823,INVALID,360.0,VALID,0.0,
2019-01-25, 03:02:06,VALID,918.733,VALID,0.0,VALID,98.888,VALID,0.002,VALID,19.827,INVALID,360.0,VALID,0.158,
2019-01-25, 03:03:06,VALID,918.721,VALID,0.0,VALID,98.862,VALID,0.011,VALID,19.812,INVALID,360.0,VALID,0.0,
2019-01-25, 03:04:06,VALID,918.717,VALID,0.0,VALID,98.867,VALID,0.016,VALID,19.823,INVALID,360.0,VALID,0.0,
2019-01-25, 03:05:06,VALID,918.714,VALID,0.0,VALID,98.841,VALID,0.007,VALID,19.814,INVALID,360.0,VALID,0.0,
2019-01-25, 03:06:06,VALID,918.725,VALID,0.0,VALID,98.84,VALID,0.022,VALID,19.807,INVALID,360.0,VALID,0.0,
2019-01-25, 03:07:06,VALID,918.719,VALID,0.0,VALID,98.84,VALID,0.012,VALID,19.822,INVALID,360.0,VALID,0.0,
2019-01-25, 03:08:06,VALID,918.724,VALID,0.0,VALID,98.865,VALID,0.001,VALID,19.853,INVALID,360.0,VALID,0.0,
2019-01-25, 03:09:06,VALID,918.726,VALID,0.0,VALID,98.838,VALID,0.022,VALID,19.845,INVALID,360.0,VALID,0.0,
2019-01-25, 03:10:06,VALID,918.723,VALID,0.0,VALID,98.82,VALID,0.02,VALID,19.83,INVALID,360.0,VALID,0.0,
2019-01-25, 03:11:06,VALID,918.735,VALID,0.0,VALID,98.786,VALID,0.011,VALID,19.827,INVALID,360.0,VALID,0.184,
2019-01-25, 03:12:06,VALID,918.726,VALID,0.0,VALID,98.779,VALID,-0.017,VALID,19.829,INVALID,360.0,VALID,0.177,
2019-01-25, 03:13:06,VALID,918.741,VALID,0.0,VALID,98.771,VALID,-0.036,VALID,19.834,INVALID,360.0,VALID,0.0,
2019-01-25, 03:14:06,VALID,918.757,VALID,0.0,VALID,98.789,VALID,-0.009,VALID,19.844,INVALID,360.0,VALID,0.0,
2019-01-25, 03:15:06,VALID,918.76,VALID,0.0,VALID,98.765,VALID,-0.019,VALID,19.813,INVALID,360.0,VALID,0.0,
2019-01-25, 03:16:06,VALID,918.743,VALID,0.0,VALID,98.659,VALID,-0.028,VALID,19.739,INVALID,360.0,VALID,0.0,
2019-01-25, 03:17:06,VALID,918.727,VALID,0.0,VALID,98.649,VALID,-0.019,VALID,19.696,INVALID,360.0,VALID,0.0,
2019-01-25, 03:18:06,VALID,918.729,VALID,0.0,VALID,98.615,VALID,-0.013,VALID,19.664,INVALID,360.0,VALID,0.0,
2019-01-25, 03:19:06,VALID,918.724,VALID,0.0,VALID,98.643,VALID,-0.024,VALID,19.674,INVALID,360.0,VALID,0.0,
2019-01-25, 03:20:06,VALID,918.737,VALID,0.0,VALID,98.725,VALID,-0.024,VALID,19.713,INVALID,360.0,VALID,0.0,
2019-01-25, 03:21:06,VALID,918.745,VALID,0.0,VALID,98.704,VALID,-0.022,VALID,19.709,INVALID,360.0,VALID,0.0,
2019-01-25, 03:22:06,VALID,918.746,VALID,0.0,VALID,98.728,VALID,-0.019,VALID,19.737,INVALID,360.0,VALID,0.0,
2019-01-25, 03:23:06,VALID,918.748,VALID,0.0,VALID,98.784,VALID,-0.016,VALID,19.799,INVALID,360.0,VALID,0.0,
2019-01-25, 03:24:06,VALID,918.725,VALID,0.0,VALID,98.741,VALID,-0.018,VALID,19.802,INVALID,360.0,VALID,0.0,
2019-01-25, 03:25:06,VALID,918.738,VALID,0.0,VALID,98.672,VALID,-0.012,VALID,19.766,INVALID,360.0,VALID,0.0,
2019-01-25, 03:26:06,VALID,918.743,VALID,0.0,VALID,98.654,VALID,-0.006,VALID,19.734,INVALID,360.0,VALID,0.0,
2019-01-25, 03:27:06,VALID,918.75,VALID,0.0,VALID,98.62,VALID,-0.01,VALID,19.709,INVALID,360.0,VALID,0.0,
2019-01-25, 03:28:06,VALID,918.752,VALID,0.0,VALID,98.638,VALID,-0.002,VALID,19.704,INVALID,360.0,VALID,0.0,
2019-01-25, 03:29:06,VALID,918.748,VALID,0.0,VALID,98.599,VALID,-0.004,VALID,19.665,INVALID,360.0,VALID,0.0,
2019-01-25, 03:30:06,VALID,918.741,VALID,0.0,VALID,98.601,VALID,-0.006,VALID,19.647,INVALID,360.0,VALID,0.0,
2019-01-25, 03:31:06,VALID,918.723,VALID,0.0,VALID,98.588,VALID,-0.007,VALID,19.628,INVALID,360.0,VALID,0.0,
2019-01-25, 03:32:06,VALID,918.71,VALID,0.0,VALID,98.635,VALID,-0.001,VALID,19.643,INVALID,360.0,VALID,0.0,
2019-01-25, 03:33:06,VALID,918.696,VALID,0.0,VALID,98.622,VALID,-0.004,VALID,19.608,INVALID,360.0,VALID,0.0,
2019-01-25, 03:34:06,VALID,918.678,VALID,0.0,VALID,98.582,VALID,-0.007,VALID,19.569,INVALID,360.0,VALID,0.0,
2019-01-25, 03:35:06,VALID,918.68,VALID,0.0,VALID,98.641,VALID,-0.003,VALID,19.566,INVALID,360.0,VALID,0.0,
2019-01-25, 03:36:06,VALID,918.675,VALID,0.0,VALID,98.627,VALID,0.009,VALID,19.52,INVALID,360.0,VALID,0.0,
2019-01-25, 03:37:06,VALID,918.663,VALID,0.0,VALID,98.675,VALID,0.004,VALID,19.524,INVALID,360.0,VALID,0.0,
2019-01-25, 03:38:06,VALID,918.677,VALID,0.0,VALID,98.724,VALID,-0.007,VALID,19.54,INVALID,360.0,VALID,0.0,